Regional Weather Roundup
Issued by NWS

Home | Current Version | Previous Version | Text Only | Print | Product List | Glossary On
Versions: 1 2 3 4 5 6 7 8 9 10 11 12 13 14 15 16 17 18 19 20 21 22 23 24 25 26 27 28 29 30 31 32 33 34 35 36 37 38 39 40 41 42 43 44 45 46 47 48 49 50
158
ASUS44 KLIX 241605
RWRLA
LOUISIANA WEATHER ROUNDUP
NATIONAL WEATHER SERVICE NEW ORLEANS LA
1000 AM CST MON NOV 24 2014

NOTE: "FAIR" INDICATES FEW OR NO CLOUDS BELOW 12,000 FEET WITH NO
      SIGNIFICANT WEATHER AND/OR OBSTRUCTIONS TO VISIBILITY.
      SKY/WX - SKY CONDITION AND SIGNIFICANT WEATHER.
      TMP - AIR TEMPERATURE.    DP   - DEWPOINT TEMPERATURE.
      RH  - RELATIVE HUMIDITY.  PRES - PRESSURE.
      HX  - HEAT INDEX.         WCI  - WIND CHILL INDEX.

*  THESE STATIONS ARE NOT NWS OR FAA STATIONS AND ARE NOT UNDER
   NWS QUALITY CONTROL.

LAZ040-048-061>063-065-066-069-241700-
SOUTHEAST LOUISIANA

CITY           SKY/WX    TMP DP  RH WIND       PRES   REMARKS
N.O. AUDUBON     N/A     70  62  74 MISG        N/A
N.O. INTL ARPT PTSUNNY   68  57  68 NW14G23   29.89R
N.O. LAKEFRONT SUNNY     62  59  90 W12       29.90R FOG
N.O. DOWNTOWN* FAIR      68  57  68 NW12      29.90R
SLIDELL        SUNNY     71  57  61 NW10      29.88R
BATON ROUGE    SUNNY     60  46  59 NW8       29.95R
BOOTHVILLE     SUNNY     70  66  87 NW12      29.89R
BELLE CHASSE   PTSUNNY   72  59  63 NW10G18   29.88R
BOGALUSA*        N/A     68  53  58 N12       29.92R
NEW ROADS*     FAIR      57  45  64 NW12      29.97R
GONZALES*      FAIR      63  53  69 NW13      29.93R
HAMMOND*       SUNNY     66  52  59 N10G17    29.93R
HOUMA*         MOSUNNY   70  59  68 NW14      29.90R
PORT FOURCHON* SUNNY     70  64  83 W10G17    29.92R

$$

LAZ041-044-053-054-241700-
SOUTHWEST LOUISIANA

CITY           SKY/WX    TMP DP  RH WIND       PRES   REMARKS
LAKE CHARLES   SUNNY     57  44  62 N12       29.99R
LAFAYETTE      SUNNY     59  45  59 N14       29.97R
PATTERSON      SUNNY     64  54  68 NW14      29.95R
SALT POINT       N/A     67  53  61 NW9G16    29.92R
NEW IBERIA     SUNNY     60  46  59 N13       29.96R
CHENAULT AIRPK SUNNY     55  45  67 N13       30.00R

$$

LAZ027-028-241700-
CENTRAL LOUISIANA

CITY           SKY/WX    TMP DP  RH WIND       PRES   REMARKS
FORT POLK      SUNNY     55  39  55 N8G18     30.00R
ALEXANDRIA INT SUNNY     56  42  59 NW13      29.99R
ALEXANDRIA     SUNNY     58  42  55 NW9       29.99R

$$

LAZ001-002-241700-
NORTHWEST LOUISIANA

CITY           SKY/WX    TMP DP  RH WIND       PRES   REMARKS
SHREVEPORT     MOSUNNY   54  36  50 NW10      30.02R
BARKSDALE AFB  SUNNY     55  34  46 N14       30.02R
DTN SHREVEPORT SUNNY     54  33  45 NW9G17    30.02R

$$

LAZ014-016-241700-
NORTHEAST LOUISIANA

CITY           SKY/WX    TMP DP  RH WIND       PRES   REMARKS
MONROE         SUNNY     55  37  50 NW14      29.99R
TALLULAH       SUNNY     56  42  59 NW9G20    29.97R

$$




USA.gov is the U.S. government's official web portal to all federal, state and local government web resources and services.